Regional Weather Roundup
Issued by NWS

Home | Current Version | Previous Version | Text Only | Print | Product List | Glossary On
Versions: 1 2 3 4 5 6 7 8 9 10 11 12 13 14 15 16 17 18 19 20 21 22 23 24 25 26 27 28 29 30 31 32 33 34 35 36 37 38 39 40 41 42 43 44 45 46 47 48 49 50
924
ASUS43 KLMK 231202
RWRKY
KENTUCKY REGIONAL WEATHER ROUNDUP
NATIONAL WEATHER SERVICE LOUISVILLE KY
800 AM EDT SAT JUL 23 2016

NOTE "FAIR" INDICATES FEW OR NO CLOUDS BELOW 12,000 FEET
WITH NO SIGNIFICANT WEATHER AND/OR OBSTRUCTIONS TO VISIBILITY.

KYZ001>023-026-027-061>063-070>075-231300-
WESTERN AND SOUTH CENTRAL KENTUCKY

CITY           SKY/WX    TMP DP  RH WIND       PRES   REMARKS
PADUCAH        MOSUNNY   75  73  93 CALM      29.98S FOG
HENDERSON      MOSUNNY   75  72  88 CALM      29.99S
OWENSBORO      MOSUNNY   76  74  93 SE5       30.01S
HOPKINSVILLE   PTSUNNY   76  74  95 CALM      30.01R
BOWLING GREEN  PTSUNNY   75  73  93 NE5       30.02S FOG
GLASGOW        NOT AVBL
$$

KYZ024-025-028>034-038-045-046-053-231300-
NORTH CENTRAL KENTUCKY

CITY           SKY/WX    TMP DP  RH WIND       PRES   REMARKS
LOUISVILLE/SDF PTSUNNY   76  71  85 CALM      30.02R
LOUISVILLE/LOU MOSUNNY   76  71  85 CALM      30.03R
FORT KNOX      NOT AVBL
$$

KYZ035>037-039>044-047>052-055>060-089>105-231300-
NORTHEAST KENTUCKY

CITY           SKY/WX    TMP DP  RH WIND       PRES   REMARKS
LEXINGTON      MOSUNNY   73  70  90 S5        30.05S
COVINGTON      CLOUDY    75  73  93 CALM      30.03S FOG
FRANKFORT      SUNNY     74  70  87 S3        30.03R
$$

KYZ054-064>069-076>088-106>120-231300-
SOUTHEAST KENTUCKY

CITY           SKY/WX    TMP DP  RH WIND       PRES   REMARKS
JACKSON        CLOUDY    73  69  87 CALM      30.07R
LONDON         MOSUNNY   75  69  81 CALM      30.06S
SOMERSET       MOSUNNY   72  72 100 CALM      30.06S FOG
MIDDLESBORO    SUNNY     73  72  95 CALM      30.07R
MONTICELLO     MOSUNNY  N/A N/A N/A MISG      30.06S HAZE
$$





USA.gov is the U.S. government's official web portal to all federal, state and local government web resources and services.